[[{"header":{"parameterUnit":"m.s-1","parameterCategory":1,"la1":30.2992,"la2":30.254,"lo1":-89.0895,"lo2":-89.0443,"dy":0.0025,"dx":0.0025,"nx":19,"ny":19,"refTime":"2026-05-02T09:00:00:Z","depth":0,"parameterNumber":2,"parameterNumberName":"U-component_of_WINDS"},"data":[0,0,0,0.8703,0.8707,0.8898,0.8898,0.9147,0.9149,0,0,0,0,0,0,0,0,0,0,0,0.8643,0.8644,0.8702,0.8707,0.8898,0.8899,0.9146,0.9149,0,0,0,0,0,0,0,0,0,0,0,0.8642,0.8644,0.8646,0.8708,0.8897,0.8899,0.9146,0.9002,0,0,0,0,0,0,0,0,0,0,0.8816,0.8757,0.8644,0.8646,0.8709,0.8897,0.8899,0.8995,0.9011,0.906,0,0.9098,0,0.9127,0.9165,0.9166,0,0,0,0.8711,0.8743,0.8797,0.8646,0.871,0.8897,0.8813,0.9004,0.9022,0.9081,0.9102,0.9111,0.9131,0.9167,0.9168,0.9426,0.9427,0,0,0.8701,0.8677,0.8784,0.8808,0.8772,0.8807,0.8819,0.9015,0.9038,0.9103,0.9117,0.9135,0.9169,0.917,0.9425,0.9426,0,0,0,0.8668,0.867,0.8718,0.8798,0.8831,0.8812,0.8826,0.9029,0.9047,0.912,0.9138,0.917,0.9173,0.9424,0.9425,0.9451,0,0,0,0.8661,0.865,0.8714,0.8701,0.8828,0.8932,0.8836,0.9033,0.9056,0.9137,0.917,0.9175,0.9423,0.9425,0.9448,0.9469,0,0,0,0.8632,0.8647,0.8673,0.87,0.878,0.8929,0.8958,0.9038,0.9067,0.9166,0.9176,0.9422,0.9424,0.9445,0.9464,0.953,0,0,0,0.8595,0.8695,0.8673,0.8792,0.8778,0.8941,0.8957,0.9081,0.9169,0.9171,0.9423,0.9425,0.9444,0.9462,0.9527,0.9583,0.9602,0,0,0.8709,0.8708,0.8781,0.8766,0.8925,0.8914,0.908,0.9186,0.922,0.9357,0.9363,0.9449,0.9464,0.953,0.9719,0.9735,0,0,0,0.8809,0.8861,0.8909,0.8988,0.9067,0.9139,0.922,0.926,0.9376,0.9283,0.9491,0.95,0.954,0.9568,0.9581,0.9618,0.9436,0.9436,0.9436,0.894,0.8972,0.9095,0.9151,0.9229,0.931,0.9379,0.9446,0.9461,0.9509,0.9551,0.9661,0.9693,0.9703,0.9741,0.9581,0.9581,0.9581,0.9581,0.9112,0.9192,0.9203,0.9326,0.9363,0.9469,0.9553,0.9559,0.9667,0.9633,0.967,0.9631,0.9719,0.9754,0.9584,0.9583,0.9583,0.9583,0.9583,0.9203,0.9247,0.9289,0.9407,0.9495,0.955,0.9651,0.9682,0.9712,0.9748,0.9797,0.9796,0.9802,0.9768,0.9769,0.9769,0.9769,0.977,0.977,0.9282,0.9328,0.9407,0.9497,0.9552,0.9629,0.9711,0.9769,0.9841,0.9856,0.9856,0.9867,0.9719,0.9682,0.9776,0.9775,0.9774,0.9774,0.9773,0.9449,0.9415,0.9536,0.959,0.97,0.9787,0.9822,0.9936,0.9988,1.0038,1.004,0.9924,0.9928,0.9918,0.9888,1.003,1.003,1.003,1.003,0.9527,0.953,0.966,0.9746,0.9833,0.9877,1.0018,1.0084,1.0148,1.0183,1.0167,1.0129,1.0117,1.0128,1.0113,1.0086,1.0275,1.0276,1.0276,0.9633,0.9645,0.9757,0.9812,0.99,0.9977,1.0111,1.0214,1.028,1.0286,1.0212,1.0202,1.0141,1.0119,1.0127,1.0103,1.0054,0,0]},{"header":{"parameterUnit":"m.s-1","parameterCategory":1,"la1":30.2992,"la2":30.254,"lo1":-89.0895,"lo2":-89.0443,"dy":0.0025,"dx":0.0025,"nx":19,"ny":19,"refTime":"2026-05-02T09:00:00:Z","depth":0,"parameterNumber":3,"parameterNumberName":"V-component_of_WINDS"},"data":[0,0,0,0.2897,0.29,0.3077,0.3078,0.3296,0.3298,0,0,0,0,0,0,0,0,0,0,0,0.2839,0.284,0.2896,0.2901,0.3077,0.3078,0.3296,0.3298,0,0,0,0,0,0,0,0,0,0,0,0.2838,0.284,0.2841,0.2901,0.3077,0.3078,0.3295,0.3165,0,0,0,0,0,0,0,0,0,0,0.2995,0.2935,0.2839,0.2841,0.2902,0.3077,0.3078,0.3159,0.3173,0.3212,0,0.3245,0,0.3275,0.3312,0.3313,0,0,0,0.2905,0.2923,0.2976,0.2842,0.2904,0.3077,0.2999,0.3167,0.3183,0.3231,0.3248,0.3257,0.3279,0.3313,0.3314,0.3528,0.3529,0,0,0.2895,0.2868,0.2965,0.2986,0.2958,0.2993,0.3004,0.3177,0.3194,0.3249,0.3262,0.3282,0.3315,0.3316,0.3527,0.3528,0,0,0,0.2864,0.2861,0.2909,0.2977,0.301,0.2998,0.3011,0.3186,0.3204,0.3264,0.3285,0.3316,0.3318,0.3526,0.3527,0.3543,0,0,0,0.2859,0.2843,0.2905,0.289,0.3006,0.31,0.3016,0.3192,0.3213,0.3284,0.3316,0.332,0.3525,0.3527,0.354,0.3555,0,0,0,0.2829,0.2839,0.2863,0.2888,0.2963,0.3098,0.3126,0.3197,0.3225,0.3313,0.3321,0.3525,0.3527,0.3538,0.3551,0.3605,0,0,0,0.279,0.2872,0.2863,0.2963,0.2961,0.3105,0.3125,0.3234,0.331,0.3317,0.3526,0.3527,0.3538,0.3549,0.3603,0.3647,0.3662,0,0,0.2878,0.2882,0.2943,0.294,0.3078,0.308,0.3222,0.3318,0.335,0.3467,0.3473,0.3541,0.3551,0.3605,0.3753,0.3765,0,0,0,0.2962,0.3006,0.3048,0.3121,0.3196,0.3263,0.334,0.3376,0.3477,0.3404,0.3574,0.3581,0.3614,0.3637,0.3647,0.3678,0.3536,0.3536,0.3535,0.3048,0.3087,0.3192,0.3253,0.3322,0.3402,0.3463,0.3525,0.3542,0.3582,0.3618,0.3703,0.3728,0.3736,0.3768,0.3642,0.3642,0.3642,0.3642,0.3184,0.3254,0.3276,0.3386,0.3427,0.352,0.36,0.361,0.3703,0.3678,0.3709,0.3681,0.3748,0.3778,0.3644,0.3643,0.3643,0.3643,0.3643,0.3247,0.3288,0.333,0.3441,0.3522,0.358,0.3669,0.3702,0.3734,0.3764,0.3807,0.3807,0.3813,0.3781,0.3782,0.3782,0.3782,0.3782,0.3783,0.3297,0.3345,0.3416,0.3505,0.3557,0.363,0.3712,0.3764,0.3831,0.3848,0.3849,0.3864,0.3746,0.3717,0.3788,0.3787,0.3786,0.3786,0.3785,0.3424,0.3402,0.3512,0.3564,0.3673,0.3752,0.3793,0.3898,0.3945,0.3989,0.3997,0.3904,0.391,0.3902,0.3879,0.3987,0.3987,0.3987,0.3987,0.348,0.3486,0.3608,0.369,0.3774,0.3823,0.3949,0.4013,0.4077,0.4109,0.4098,0.4069,0.4059,0.4071,0.4059,0.4039,0.4185,0.4185,0.4185,0.3562,0.3578,0.3678,0.3741,0.3828,0.3903,0.4023,0.4117,0.4183,0.4194,0.4136,0.4128,0.4081,0.4063,0.4074,0.4056,0.4018,0,0]}]]